STARLINK-11522, 63141

Orbit data source: Space-Track

STARLINK-11522, 63141 is a payload satellite owned by SpaceX/Seattle (US) in LEO that was launched on Mon, 03 Mar 2025 UTC via an FALCON 9 launch vehicle from the Air Force Eastern Test Range (AFETR). Payload-class satellites include a variety of spacecraft equipped with specific instruments for various scientific and technological missions. These include communications satellites like Starlink; space stations such as the ISS; scientific satellites like the Hubble; Earth observation satellites from companies like Planet Labs, Umbra, and HawkEye 360; GPS; miniature CubeSats for education and research; and military/defense satellites.

Loading next visibility...
Identifier
63141, 2025-043K
Orbit
LEO
Country
Flag of USUS
Related business
Manufacturer
SpaceX/Seattle
Mission
Operational Commercial Communications
Bus & Motor
STARLINK V2MD, Unknown motor
Mass
960 kg wet, ~910 kg dry
Launch date (UTC)
2025-03-03 (2 years ago)
Launch vehicle
FALCON 9
Launch site
Air Force Eastern Test Range (AFETR)
Object type
Payload
Rocket body
Debris
Shape & HBR
Box + 2 Pan, 18.1 m
Radar Cross Section
36.964 m², Large (>1 m²)

Expand to show TLE details & history
Last TLE update: 10 hours ago

TLE from 10 hours ago
0 STARLINK-11522
1 63141U 25043K   26255.87466836  .00155607  00000-0  11916-2 0  9991
2 63141  42.9966 202.2267 0001013 156.2044 203.8871 15.70879879 88737
Epoch: 2026-09-12T20:59Z
TLE epoch observation values (Epoch: 2026-09-12T20:59:31.346Z)
Latitude
0.00002°
Longitude
-104.53129°
Altitude
356.776 km
Speed
7.697 km/s
True Right ascension
13h 28m 54s
True Declination
0° 00' 00"
Sunlit
Object was in daylight at epoch
Visualization orbit readout
Latitude
Unknown
Longitude
Unknown
Altitude
Unknown
Speed
Unknown
Apparent Right ascension
Unknown
Apparent Declination
Unknown
Sunlit
N/A
Visualization observer readout
Local Sidereal Time
23:50:05
Azimuth
Unknown
Elevation
Unknown
Doppler factor
Unknown
Orbital elements
Apogee altitude
359.046 km
Perigee altitude
357.681 km
Semi-major axis
6,736.5 km
Eccentricity
0.0001
Inclination
42.9966°
RAAN
202.2267°
Arg. of periapsis
156.2044°
True anomaly
203.8824°
Mean anomaly
203.8871°
Eccentric anomaly
203.88475°
Mean motion
3.92547 °/min
Orbital period
91.71 mins
BSTAR
0.0011916
Loading maneuver chart data...
Computing Atmospheric mass density...
Loading historical data...
Loading historical data...
Loading historical data...
Loading historical data...
Loading historical data...
Loading historical data...
Loading historical data...

Documentation

Showing up to 5 results
|